This is the latest recevied weather packets stored in our database for station/object VK3CG. If no packets are shown the sender has not sent any weather packets the latest 10 day(s).
| Time | Temp. | Humidity | Pressure | Rain* | Wind** | Luminosity | Snow |
|---|---|---|---|---|---|---|---|
| 1777718757 | 18.33° C | 40% | 1026.7 hPa | 0 mm | - | 0 W/m² | - |
| 1777717848 | 18.33° C | 38% | 1026.6 hPa | 0 mm | - | 0 W/m² | - |
| 1777716963 | 18.89° C | 37% | 1026 hPa | 0 mm | - | 0 W/m² | - |
| 1777716047 | 18.33° C | 37% | 1026 hPa | 0 mm | - | 0 W/m² | - |
| 1777715145 | 18.33° C | 37% | 1026 hPa | 0 mm | - | 0 W/m² | - |
| 1777714255 | 18.33° C | 39% | 1026 hPa | 0 mm | - | 0 W/m² | - |
| 1777713344 | 18.33° C | 39% | 1026 hPa | 0 mm | - | 0 W/m² | - |
| 1777712443 | 18.33° C | 40% | 1026.1 hPa | 0 mm | - | 0 W/m² | - |
| 1777711543 | 18.33° C | 41% | 1026 hPa | 0 mm | - | 0 W/m² | - |
| 1777710644 | 18.33° C | 43% | 1026.1 hPa | 0 mm | - | 0 W/m² | - |
| 1777709754 | 18.89° C | 42% | 1026 hPa | 0 mm | - | 0 W/m² | - |
| 1777708841 | 18.89° C | 42% | 1026.1 hPa | 0 mm | - | 0 W/m² | - |
| 1777708001 | 18.89° C | 42% | 1026 hPa | 0 mm | - | 0 W/m² | - |
| 1777707040 | 18.89° C | 43% | 1025.9 hPa | 0 mm | - | 0 W/m² | - |
| 1777706139 | 18.89° C | 43% | 1026 hPa | 0 mm | - | 12 W/m² | - |
| 1777705255 | 18.89° C | 42% | 1026 hPa | 0 mm | - | 25 W/m² | - |
| 1777704341 | 19.44° C | 42% | 1026 hPa | 0 mm | - | 33 W/m² | - |
| 1777703438 | 19.44° C | 42% | 1026 hPa | 0 mm | - | 44 W/m² | - |
| 1777702536 | 19.44° C | 41% | 1026 hPa | 0 mm | - | 62 W/m² | - |
| 1777701697 | 19.44° C | 41% | 1025.9 hPa | 0 mm | - | 76 W/m² | - |
| 1777700744 | 19.44° C | 41% | 1026 hPa | 0 mm | - | 97 W/m² | - |
| 1777699836 | 19.44° C | 42% | 1026 hPa | 0 mm | - | 79 W/m² | - |
| 1777698934 | 19.44° C | 41% | 1026.2 hPa | 0 mm | - | 171 W/m² | - |
| 1777698032 | 20° C | 41% | 1026.3 hPa | 0 mm | - | 130 W/m² | - |
| 1777697131 | 20° C | 41% | 1026.4 hPa | 0 mm | - | 134 W/m² | - |
* Rain latest hour (hover to see other rain measurements)
** Current wind speed in m/s (hover to see current wind gust speed)